Wind_Speed
18 18 18 17 16 16 16 16 16 15 15 15 15 16 16 16 16 17 18 19 21 22 23 23 24 24 26 27 28 29 31 33 33 33 32 31 30 28 27 30 30 29
19 19 19 18 17 17 17 16 16 16 16 16 16 17 17 17 17 17 18 20 21 22 23 24 25 26 27 28 29 30 32 33 34 34 33 32 31 28 27 31 30 25
21 20 20 20 19 18 17 17 17 17 17 16 16 16 16 17 18 19 20 21 23 23 23 23 24 25 27 27 28 31 32 33 33 33 33 32 30 27 26 28 27 23
22 22 22 22 20 18 18 17 17 17 17 17 16 15 16 18 19 20 22 22 24 25 24 24 25 26 27 28 29 31 32 33 33 32 33 32 30 28 27 28 26 24
22 22 23 22 20 18 18 17 17 17 17 16 16 16 17 18 19 20 22 23 24 26 26 27 27 26 27 28 30 31 33 34 33 32 32 32 30 29 30 31 29 28
20 21 21 20 18 18 17 16 16 16 16 16 16 17 17 18 19 19 21 23 24 26 27 28 28 28 29 30 31 32 33 33 33 31 31 32 33 32 32 33 33 32
16 17 17 17 16 15 15 16 16 15 15 15 16 16 17 17 19 19 21 23 24 25 26 28 30 31 32 32 31 31 32 32 30 30 30 33 36 37 35 35 35 34
13 13 13 13 13 13 14 15 16 15 15 16 17 17 16 18 19 20 21 22 24 25 26 27 30 31 32 32 31 30 31 29 26 27 30 34 37 40 40 38 36 35
12 12 12 12 12 13 14 15 16 16 16 17 18 17 17 18 19 21 22 23 24 26 27 28 30 31 31 31 31 30 29 26 22 23 27 32 36 40 41 40 37 35
11 12 12 12 13 13 14 14 16 16 16 17 17 17 18 19 21 23 24 25 26 28 29 29 30 31 30 31 31 30 28 25 24 26 29 34 39 41 42 41 38 36
12 12 13 13 13 13 13 14 14 14 14 16 18 18 19 21 23 25 26 27 29 30 31 31 32 32 30 30 31 30 27 27 29 33 36 38 41 43 44 42 39 36
13 13 13 14 13 12 12 13 13 14 14 16 19 21 21 22 24 26 27 29 31 33 35 34 35 35 32 31 31 30 28 28 30 33 35 36 37 40 43 42 39 36
14 14 14 14 13 11 11 13 15 15 15 17 19 22 23 23 24 26 28 29 32 35 37 38 38 38 35 32 32 32 30 30 30 31 32 33 34 37 41 42 39 37
16 15 14 12 11 11 12 14 16 17 17 17 18 20 23 24 25 26 28 30 34 37 39 39 40 40 37 34 33 33 33 32 31 31 32 32 34 36 41 42 40 38
16 15 13 12 12 12 13 14 15 16 17 17 18 20 23 25 26 28 30 33 36 39 40 41 40 40 38 36 35 34 34 34 33 33 32 32 34 37 40 42 40 38
16 15 13 13 13 13 13 14 15 16 18 20 21 23 26 28 30 32 34 36 39 41 43 42 41 40 39 38 36 34 33 33 33 34 34 33 35 37 40 41 40 39
17 16 15 15 15 14 14 15 16 18 20 23 25 27 29 31 33 35 37 39 41 42 43 43 41 40 39 38 36 34 32 32 33 35 34 34 36 38 41 41 39 39
18 17 16 16 16 15 16 18 19 22 24 26 28 30 32 33 35 38 40 42 43 43 43 42 40 39 37 37 36 34 32 33 34 34 34 34 36 39 41 41 39 38
19 18 17 16 17 19 20 22 23 25 27 28 31 33 34 36 38 41 43 45 46 47 45 42 39 37 36 37 37 35 33 34 34 33 32 33 37 40 41 41 40 38
20 18 17 18 19 21 23 24 26 27 29 30 32 35 36 37 39 42 44 45 47 49 48 44 39 36 36 37 37 35 34 33 33 32 31 34 38 40 41 41 39 37
20 19 19 20 21 23 24 26 27 29 31 32 34 36 38 38 40 43 44 45 47 49 49 45 40 37 36 37 37 34 33 32 31 30 32 35 38 39 39 39 38 36
21 22 23 23 24 25 26 27 29 31 32 34 36 38 39 41 43 44 45 47 48 49 48 45 41 38 36 37 38 36 34 33 30 30 32 35 37 37 37 36 35 36
24 25 26 28 29 29 29 29 31 32 34 36 38 40 41 43 45 45 47 49 50 49 48 45 42 40 38 38 40 39 37 35 32 31 33 36 36 35 34 34 34 37
28 28 30 32 33 33 33 33 33 35 37 38 40 42 43 45 46 47 48 50 51 50 48 44 42 40 39 39 40 39 37 35 33 32 34 35 35 34 34 35 36 39
32 33 34 34 35 37 37 37 37 38 40 40 42 43 44 46 48 49 49 51 52 51 47 44 42 41 40 40 39 37 36 35 34 34 34 34 34 35 36 37 38 40
36 37 37 37 38 40 40 40 41 42 42 43 43 44 46 48 50 50 50 52 52 51 48 44 42 42 41 40 37 36 35 34 35 35 35 35 36 37 37 37 38 41
Wind_Direction
255 256 260 266 270 273 276 276 274 271 273 280 289 297 303 309 314 318 320 322 323 323 321 318 317 318 320 321 323 324 324 323 322 321 320 317 311 306 304 302 298 295
253 256 260 265 270 273 276 276 273 271 274 282 290 299 305 310 314 319 322 323 322 322 321 318 318 319 321 322 323 324 324 322 321 320 322 321 315 307 303 304 304 304
251 255 260 265 269 273 275 274 272 272 276 283 292 299 304 309 314 318 320 321 321 321 319 315 315 317 318 320 321 321 321 321 319 317 319 323 321 312 302 303 308 309
249 253 258 264 269 271 272 271 270 273 278 286 294 297 302 309 314 316 317 320 321 320 317 314 315 317 318 318 318 318 318 318 317 314 317 323 324 318 306 301 307 314
249 252 258 264 267 267 268 269 270 275 283 289 294 297 303 310 313 316 318 320 321 320 318 317 318 319 319 318 316 314 313 314 313 311 314 320 322 319 313 307 307 313
254 255 259 263 264 264 266 269 272 278 285 289 294 300 306 311 313 317 320 320 321 321 319 318 318 319 318 317 315 313 312 312 308 305 309 316 318 316 315 312 310 311
258 258 260 261 261 262 265 270 276 281 285 290 297 304 309 311 313 318 321 321 322 321 319 318 317 317 317 316 314 313 313 312 305 297 302 310 312 311 310 311 310 310
260 260 260 260 260 263 268 274 279 283 287 293 298 304 309 312 315 319 322 322 321 320 319 316 315 315 315 314 313 312 313 314 305 293 296 304 308 308 309 310 310 309
263 263 261 262 264 269 273 277 282 287 292 294 296 298 303 309 315 318 321 321 320 318 316 314 312 311 311 311 311 309 308 309 306 296 295 303 307 308 309 311 312 309
261 260 262 266 270 275 280 283 286 289 293 293 292 292 295 302 308 312 316 317 317 315 314 312 309 308 308 307 307 306 301 296 294 290 290 298 304 306 308 310 312 310
258 261 265 272 278 281 283 284 284 286 290 290 289 289 291 296 302 307 312 315 316 315 314 313 310 307 305 302 301 302 299 293 290 289 291 296 300 303 305 308 310 309
261 265 271 277 281 280 279 280 280 282 285 285 286 289 292 296 301 306 311 315 317 316 316 316 313 309 304 299 296 297 296 295 295 295 296 298 299 300 302 304 307 306
263 266 271 275 277 275 275 276 278 279 280 280 282 288 294 298 302 306 311 316 318 317 316 316 313 310 306 299 294 293 293 294 295 296 296 297 298 298 299 300 304 304
262 264 267 270 272 274 274 274 276 280 281 281 284 291 298 303 306 310 314 317 318 316 315 314 312 309 306 299 294 294 294 294 294 294 294 295 296 296 296 298 301 302
258 261 263 264 267 271 273 275 279 285 288 291 296 300 305 308 311 315 317 318 318 318 316 315 313 309 303 297 295 295 296 295 293 293 293 294 295 295 294 295 299 300
254 257 257 260 265 271 278 284 290 295 300 303 307 308 309 309 312 315 317 318 319 320 319 317 314 309 302 296 296 297 295 294 293 294 295 295 295 295 294 295 298 298
249 252 255 260 266 273 281 289 296 302 306 309 312 313 312 311 312 315 316 317 318 321 321 318 314 309 304 299 298 297 294 292 293 294 295 295 296 294 294 296 298 297
246 252 258 265 271 277 284 292 298 303 307 309 311 312 312 312 314 316 315 315 317 320 321 318 313 309 305 300 296 295 293 292 293 294 294 295 295 294 294 297 297 295
250 257 263 272 280 286 292 296 299 302 304 306 307 308 309 312 315 316 315 314 316 319 320 317 311 307 303 297 295 294 294 293 294 295 296 295 294 294 295 296 295 294
256 261 269 279 288 292 295 297 298 299 301 303 304 306 307 310 314 315 315 314 314 316 318 315 310 305 300 295 294 294 294 294 295 296 296 295 294 294 295 295 294 293
262 266 274 283 289 291 293 295 296 297 299 300 302 304 306 309 312 314 314 312 312 314 316 313 308 304 299 295 294 294 294 294 295 295 295 294 294 294 294 293 292 292
270 273 280 285 287 288 291 292 293 295 297 299 300 302 305 308 310 312 311 310 311 314 313 310 307 303 299 296 295 296 295 295 296 296 294 293 292 291 290 291 292 293
276 278 282 284 285 286 288 290 292 294 296 298 300 301 304 307 308 309 310 310 312 313 312 309 306 302 299 297 296 297 297 297 298 296 293 291 289 287 288 290 292 290
277 278 280 282 284 286 288 290 292 294 295 297 299 300 302 304 305 307 308 308 310 312 311 308 304 301 299 298 297 297 296 296 296 293 290 288 285 283 286 288 287 285
275 277 278 280 283 286 288 290 291 291 292 294 296 298 300 301 303 304 305 306 309 311 309 306 303 301 300 300 298 296 295 294 293 291 287 283 280 282 286 287 285 284
273 275 278 281 283 284 286 287 288 289 289 291 293 296 298 299 300 302 304 305 308 309 307 303 301 300 300 300 297 295 294 294 292 289 283 277 277 283 287 287 285 284
Height
5910 5911 5911 5912 5913 5913 5913 5913 5913 5913 5913 5914 5914 5914 5913 5913 5912 5911 5909 5908 5907 5906 5904 5903 5901 5900 5899 5897 5896 5894 5893 5891 5889 5888 5886 5885 5883 5882 5881 5879 5878 5877
5908 5909 5909 5910 5911 5911 5911 5911 5911 5911 5911 5912 5912 5912 5912 5910 5909 5909 5907 5906 5905 5903 5902 5901 5899 5898 5896 5895 5894 5892 5890 5889 5887 5885 5884 5882 5880 5879 5878 5876 5874 5874
5906 5907 5907 5908 5909 5909 5909 5909 5909 5909 5910 5910 5911 5911 5910 5908 5907 5906 5905 5904 5903 5901 5900 5899 5897 5896 5895 5894 5892 5890 5888 5887 5885 5883 5881 5880 5878 5877 5876 5874 5872 5872
5904 5904 5905 5905 5906 5907 5907 5907 5907 5907 5908 5909 5909 5909 5908 5906 5905 5904 5903 5902 5901 5899 5898 5897 5896 5894 5893 5892 5890 5888 5886 5884 5882 5880 5879 5877 5876 5875 5873 5872 5871 5870
5901 5902 5902 5903 5904 5904 5905 5905 5905 5906 5907 5907 5907 5907 5906 5904 5903 5902 5901 5899 5898 5897 5896 5894 5893 5892 5891 5889 5887 5885 5883 5882 5880 5878 5876 5875 5874 5873 5872 5871 5870 5869
5898 5899 5900 5901 5901 5902 5903 5903 5904 5904 5905 5905 5905 5904 5903 5902 5901 5900 5899 5897 5896 5895 5894 5892 5891 5890 5888 5886 5884 5882 5880 5879 5877 5875 5874 5872 5871 5870 5870 5869 5868 5868
5896 5897 5898 5898 5899 5900 5901 5901 5902 5903 5903 5903 5902 5901 5900 5899 5899 5898 5897 5895 5894 5893 5892 5890 5889 5887 5886 5884 5882 5880 5878 5876 5875 5873 5871 5870 5868 5867 5867 5867 5866 5865
5894 5895 5895 5896 5897 5898 5899 5900 5900 5901 5901 5901 5900 5899 5898 5897 5896 5895 5894 5893 5892 5891 5890 5888 5886 5885 5883 5881 5879 5877 5875 5874 5872 5871 5869 5868 5866 5864 5863 5864 5863 5862
5892 5893 5893 5894 5896 5897 5898 5898 5898 5898 5899 5898 5898 5897 5896 5895 5894 5893 5892 5891 5890 5888 5887 5886 5884 5882 5881 5879 5877 5875 5873 5871 5870 5869 5867 5865 5864 5862 5860 5860 5860 5859
5890 5891 5892 5893 5894 5895 5896 5896 5896 5896 5896 5896 5895 5894 5894 5893 5892 5891 5889 5888 5887 5886 5885 5883 5881 5880 5878 5877 5875 5872 5871 5869 5868 5866 5864 5863 5861 5859 5857 5857 5857 5856
5888 5889 5890 5891 5892 5893 5894 5894 5893 5894 5894 5893 5892 5891 5891 5890 5889 5888 5887 5886 5884 5883 5882 5880 5879 5877 5875 5873 5872 5870 5868 5866 5865 5863 5862 5861 5859 5857 5855 5854 5854 5852
5886 5887 5888 5889 5890 5891 5892 5891 5891 5891 5892 5891 5889 5888 5888 5888 5886 5885 5884 5883 5881 5880 5878 5877 5875 5873 5872 5870 5868 5867 5865 5863 5862 5860 5859 5858 5857 5854 5852 5850 5850 5849
5884 5885 5886 5887 5888 5889 5889 5889 5888 5889 5889 5888 5887 5885 5885 5885 5884 5883 5882 5881 5879 5877 5875 5874 5872 5870 5868 5866 5864 5863 5861 5860 5859 5857 5856 5855 5854 5852 5849 5847 5847 5846
5882 5883 5884 5885 5886 5887 5887 5886 5886 5886 5886 5885 5885 5883 5882 5882 5882 5881 5880 5879 5877 5875 5873 5871 5869 5867 5864 5862 5860 5859 5858 5857 5855 5854 5853 5852 5850 5848 5846 5844 5844 5843
5880 5881 5882 5884 5884 5884 5884 5884 5883 5883 5883 5882 5882 5881 5880 5879 5879 5878 5877 5876 5874 5872 5869 5867 5865 5862 5860 5857 5856 5855 5854 5853 5851 5850 5849 5848 5847 5845 5843 5841 5840 5839
5878 5879 5880 5881 5882 5882 5882 5881 5881 5880 5880 5879 5879 5879 5877 5876 5875 5874 5874 5872 5871 5868 5865 5863 5860 5858 5855 5853 5852 5852 5850 5849 5848 5846 5845 5844 5843 5842 5840 5838 5836 5834
5876 5877 5878 5879 5880 5880 5879 5879 5878 5877 5877 5876 5875 5875 5874 5872 5871 5870 5869 5868 5867 5865 5862 5859 5857 5854 5852 5849 5848 5847 5846 5845 5844 5842 5841 5840 5840 5838 5836 5834 5832 5831
5874 5875 5876 5877 5877 5877 5876 5876 5875 5874 5873 5872 5872 5871 5870 5869 5868 5866 5864 5862 5861 5861 5859 5856 5853 5851 5849 5846 5844 5843 5842 5841 5840 5838 5837 5836 5835 5834 5831 5829 5828 5827
5872 5873 5873 5874 5874 5873 5873 5873 5872 5871 5870 5870 5869 5868 5867 5866 5864 5862 5860 5858 5856 5854 5854 5853 5850 5848 5846 5843 5840 5839 5838 5836 5836 5835 5834 5833 5831 5829 5827 5825 5823 5822
5869 5870 5871 5871 5870 5870 5870 5869 5869 5868 5868 5867 5866 5864 5863 5862 5861 5858 5856 5854 5852 5850 5848 5847 5846 5845 5842 5839 5837 5836 5834 5833 5832 5831 5830 5829 5827 5825 5823 5820 5819 5818
5867 5867 5867 5867 5867 5867 5867 5866 5865 5865 5864 5863 5862 5861 5860 5859 5857 5855 5853 5851 5849 5846 5844 5842 5841 5841 5839 5836 5834 5833 5831 5829 5829 5828 5827 5825 5823 5821 5819 5816 5815 5814
5863 5863 5864 5864 5864 5863 5863 5863 5862 5861 5860 5859 5858 5856 5856 5855 5853 5851 5849 5846 5844 5842 5839 5837 5836 5836 5835 5832 5830 5829 5827 5826 5825 5824 5823 5821 5819 5817 5815 5813 5813 5811
5859 5859 5859 5859 5859 5859 5860 5859 5858 5857 5856 5855 5854 5852 5851 5850 5848 5846 5845 5842 5840 5838 5835 5833 5832 5831 5831 5829 5827 5825 5823 5822 5821 5820 5819 5817 5814 5813 5812 5811 5810 5808
5854 5855 5855 5855 5855 5855 5855 5855 5854 5853 5852 5851 5850 5848 5847 5846 5843 5842 5840 5838 5835 5833 5831 5829 5828 5827 5827 5826 5824 5822 5820 5819 5818 5816 5815 5813 5810 5809 5809 5808 5806 5804
5850 5851 5851 5851 5851 5851 5851 5851 5850 5849 5848 5847 5845 5843 5842 5841 5839 5837 5836 5834 5831 5829 5826 5825 5824 5823 5822 5821 5819 5818 5816 5815 5814 5812 5811 5809 5807 5805 5804 5803 5801 5798
5846 5846 5846 5847 5847 5847 5847 5847 5845 5844 5843 5842 5841 5839 5837 5836 5835 5833 5831 5829 5827 5824 5822 5821 5820 5819 5817 5816 5814 5813 5811 5810 5809 5807 5806 5804 5802 5801 5800 5798 5795 5793